Weather History for Omaha Millard, NE

Change the Weather History Date:

Tuesday, March 13, 2012

  Actual Average (KOMA) Record (KOMA)
Temperature  
Mean Temperature 60 °F 38 °F  
Max Temperature 82 °F 50 °F 81 °F (2012)
Min Temperature 39 °F 27 °F 0 °F (1880)
Degree Days  
Heating Degree Days 4 27  
Month to date heating degree days 381  
Since 1 July heating degree days 5179  
Cooling Degree Days 0 0  
Month to date cooling degree days 0  
Year to date cooling degree days 0  
Growing Degree Days 10 (Base 50)    
Moisture  
Dew Point 41 °F    
Average Humidity 57    
Maximum Humidity 93    
Minimum Humidity 16    
Precipitation  
Precipitation 0.00 in 0.06 in 1.25 in (1913)
Month to date precipitation 0.66  
Year to date precipitation 2.23  
Snow  
Snow 0.00 in 0.10 in - ()
Month to date snowfall 2.1  
Since 1 July snowfall 23.3  
Snow Depth -    
Sea Level Pressure  
Sea Level Pressure 29.91 in    
Wind  
Wind Speed 4 mph (SE)    
Max Wind Speed 21 mph    
Max Gust Speed 26 mph    
Visibility 8 miles    
Events Fog    
T = Trace of Precipitation, MM = Missing Value Source: NWS Daily Summary

Daily Weather History Graph

Daily Weather History Graph

Search for Another Location

Airport:

Trip Planner

Search our weather history database for the weather conditions in past years. The results will help you decide how hot, cold, wet, or windy it might be!

Date:

Astronomy

Mar. 13, 2012 Rise Set
Actual Time 7:38 AM CDT 7:29 PM CDT
Civil Twilight 7:11 AM CDT 7:56 PM CDT
Nautical Twilight 6:39 AM CDT 8:29 PM CDT
Astronomical Twilight 6:06 AM CDT 9:01 PM CDT
Moon 1:06 AM CDT (3/13) 10:48 AM CDT (3/13)
Length of Visible Light 12h 45m
Length of Day
11h 50m
Waning Gibbous, 65% of the Moon is Illuminated
Mar 13
Waning Gibbous
Mar 14
Last Quarter
Mar 22
New
Mar 30
First Quarter
Apr 6
Full

Hourly Weather History & Observations

Time (CDT) Temp. Dew Point Humidity Pressure Visibility Wind Dir Wind Speed Gust Speed Precip Events Conditions
12:15 AM 52.2 °F 43.9 °F 73% 29.94 in 10.0 mi Calm Calm - N/A   Clear
12:35 AM 50.9 °F 41.5 °F 70% 29.95 in 10.0 mi SE 3.5 mph - N/A   Clear
12:55 AM 47.5 °F 42.6 °F 83% 29.95 in 10.0 mi Calm Calm - N/A   Clear
1:15 AM 47.1 °F 42.6 °F 84% 29.96 in 10.0 mi Calm Calm - N/A   Clear
1:35 AM 45.1 °F 41.5 °F 87% 29.96 in 10.0 mi Calm Calm - N/A   Clear
1:55 AM 45.0 °F 41.9 °F 89% 29.97 in 10.0 mi Calm Calm - N/A   Clear
2:15 AM 44.6 °F 41.5 °F 89% 29.98 in 4.0 mi Calm Calm - N/A   Clear
2:35 AM 43.7 °F 41.0 °F 90% 29.98 in 10.0 mi Calm Calm - N/A   Clear
2:55 AM 43.9 °F 41.2 °F 90% 29.98 in 5.0 mi Calm Calm - N/A   Clear
3:15 AM 43.3 °F 40.6 °F 90% 29.98 in 10.0 mi Calm Calm - N/A   Clear
3:35 AM 43.0 °F 40.5 °F 91% 29.97 in 7.0 mi Calm Calm - N/A   Clear
3:55 AM 43.5 °F 41.0 °F 91% 29.97 in 10.0 mi Calm Calm - N/A   Clear
4:15 AM 42.6 °F 39.9 °F 90% 29.96 in 3.0 mi Calm Calm - N/A   Clear
4:35 AM 42.4 °F 39.9 °F 91% 29.96 in 5.0 mi Calm Calm - N/A   Clear
4:55 AM 42.1 °F 39.6 °F 91% 29.97 in 3.0 mi Calm Calm - N/A   Clear
5:15 AM 40.8 °F 38.3 °F 91% 29.97 in 2.5 mi Calm Calm - N/A   Clear
5:35 AM 41.7 °F 39.2 °F 91% 29.97 in 7.0 mi Calm Calm - N/A   Clear
5:55 AM 41.0 °F 38.7 °F 91% 29.97 in 5.0 mi Calm Calm - N/A   Clear
6:15 AM 41.0 °F 38.7 °F 91% 29.98 in 2.5 mi Calm Calm - N/A   Clear
6:35 AM 40.5 °F 38.3 °F 92% 29.98 in 3.0 mi Calm Calm - N/A   Clear
6:55 AM 39.9 °F 37.6 °F 91% 29.97 in 1.0 mi Calm Calm - N/A   Mist
7:35 AM 39.6 °F 37.4 °F 92% 29.97 in 0.5 mi Calm Calm - N/A Fog Fog
7:55 AM 41.7 °F 39.4 °F 91% 29.97 in 4.0 mi Calm Calm - N/A   Clear
8:15 AM 41.9 °F 39.7 °F 92% 29.98 in 5.0 mi Calm Calm - N/A   Clear
8:35 AM 44.6 °F 42.6 °F 93% 29.99 in 5.0 mi Calm Calm - N/A   Clear
8:55 AM 46.9 °F 44.4 °F 91% 29.99 in 7.0 mi SE 3.5 mph - N/A   Clear
9:15 AM 49.6 °F 45.3 °F 85% 29.99 in 10.0 mi SE 3.5 mph - N/A   Clear
9:35 AM 52.2 °F 46.2 °F 80% 29.99 in 10.0 mi SE 6.9 mph - N/A   Clear
9:55 AM 54.5 °F 46.4 °F 74% 29.99 in 10.0 mi SE 6.9 mph - N/A   Clear
10:15 AM 57.4 °F 47.5 °F 70% 29.99 in 10.0 mi SSE 9.2 mph - N/A   Clear
10:35 AM 59.7 °F 47.3 °F 63% 29.99 in 10.0 mi SE 10.4 mph - N/A   Clear
10:55 AM 62.8 °F 48.2 °F 59% 29.98 in 10.0 mi SSE 9.2 mph - N/A   Clear
11:15 AM 65.7 °F 45.1 °F 47% 29.98 in 10.0 mi SSE 12.7 mph 16.1 mph N/A   Clear
11:35 AM 67.3 °F 46.0 °F 46% 29.98 in 10.0 mi SE 13.8 mph - N/A   Clear
11:55 AM 68.9 °F 45.7 °F 43% 29.96 in 10.0 mi SE 15.0 mph 19.6 mph N/A   Clear
12:15 PM 71.2 °F 44.8 °F 39% 29.96 in 10.0 mi SE 12.7 mph - N/A   Clear
12:35 PM 72.0 °F 44.6 °F 37% 29.95 in 10.0 mi SE 10.4 mph 17.3 mph N/A   Clear
12:55 PM 72.5 °F 44.8 °F 37% 29.94 in 10.0 mi SE 12.7 mph - N/A   Clear
1:15 PM 73.9 °F 44.8 °F 35% 29.93 in 10.0 mi SE 12.7 mph 17.3 mph N/A   Clear
1:35 PM 76.1 °F 41.9 °F 29% 29.92 in 10.0 mi SSE 11.5 mph - N/A   Clear
1:55 PM 77.0 °F 41.0 °F 28% 29.91 in 10.0 mi SSE 11.5 mph 17.3 mph N/A   Clear
2:15 PM 78.1 °F 39.6 °F 25% 29.89 in 10.0 mi SSE 11.5 mph 18.4 mph N/A   Clear
2:35 PM 79.0 °F 39.6 °F 24% 29.88 in 10.0 mi SSE 12.7 mph 17.3 mph N/A   Clear
2:55 PM 80.1 °F 41.0 °F 25% 29.86 in 10.0 mi SE 12.7 mph 18.4 mph N/A   Clear
3:15 PM 80.6 °F 40.5 °F 24% 29.85 in 10.0 mi SE 16.1 mph 21.9 mph N/A   Clear
3:35 PM 81.3 °F 39.2 °F 22% 29.84 in 10.0 mi SSE 17.3 mph 20.7 mph N/A   Clear
3:55 PM 81.9 °F 34.9 °F 18% 29.83 in 10.0 mi SSE 18.4 mph 23.0 mph N/A   Clear
4:15 PM 82.0 °F 32.4 °F 17% 29.82 in 10.0 mi SSE 20.7 mph 25.3 mph N/A   Clear
4:35 PM 82.4 °F 33.3 °F 17% 29.82 in 10.0 mi SSE 15.0 mph 25.3 mph N/A   Clear
4:55 PM 82.0 °F 33.1 °F 17% 29.81 in 10.0 mi SSE 15.0 mph 25.3 mph N/A   Clear
5:15 PM 82.4 °F 32.0 °F 16% 29.81 in 10.0 mi SSE 17.3 mph 26.5 mph N/A   Clear
5:35 PM 82.0 °F 32.9 °F 17% 29.80 in 10.0 mi SSE 16.1 mph 23.0 mph N/A   Clear
5:55 PM 81.5 °F 32.0 °F 17% 29.79 in 10.0 mi SSE 17.3 mph 21.9 mph N/A   Clear
6:15 PM 80.6 °F 33.3 °F 18% 29.79 in 10.0 mi SE 13.8 mph 20.7 mph N/A   Clear
6:35 PM 79.3 °F 35.4 °F 20% 29.79 in 10.0 mi SE 13.8 mph - N/A   Clear
6:55 PM 77.2 °F 37.0 °F 23% 29.79 in 10.0 mi SE 10.4 mph - N/A   Clear
7:15 PM 74.7 °F 38.1 °F 27% 29.78 in 10.0 mi Calm Calm - N/A   Clear
7:35 PM 72.7 °F 38.7 °F 29% 29.79 in 10.0 mi SE 8.1 mph - N/A   Clear
7:55 PM 70.7 °F 40.1 °F 33% 29.79 in 10.0 mi SE 8.1 mph - N/A   Clear
8:15 PM 70.0 °F 41.0 °F 35% 29.78 in 10.0 mi SE 9.2 mph - N/A   Clear
8:35 PM 69.3 °F 42.3 °F 38% 29.79 in 10.0 mi SE 10.4 mph - N/A   Clear
8:55 PM 68.9 °F 43.9 °F 40% 29.79 in 10.0 mi SE 8.1 mph - N/A   Clear
9:15 PM 67.1 °F 45.0 °F 45% 29.79 in 10.0 mi SE 6.9 mph - N/A   Clear
9:35 PM 67.5 °F 45.9 °F 46% 29.79 in 10.0 mi SE 8.1 mph - N/A   Clear
9:55 PM 67.5 °F 47.1 °F 48% 29.79 in 10.0 mi SSE 9.2 mph - N/A   Clear
10:15 PM 66.4 °F 47.5 °F 51% 29.79 in 10.0 mi SE 8.1 mph - N/A   Clear
10:55 PM 67.6 °F 48.9 °F 51% 29.79 in 10.0 mi SSE 9.2 mph 16.1 mph N/A   Clear
11:15 PM 66.9 °F 49.1 °F 53% 29.80 in 10.0 mi SSE 9.2 mph - N/A   Clear
11:35 PM 66.4 °F 49.3 °F 54% 29.79 in 10.0 mi SSE 8.1 mph - N/A   Clear
11:55 PM 64.2 °F 49.1 °F 58% 29.79 in 10.0 mi SSE 6.9 mph - N/A   Clear